TimeEDT,TemperatureF,Dew PointF,Humidity,Sea Level PressureIn,VisibilityMPH,Wind Direction,Wind SpeedMPH,Gust SpeedMPH,PrecipitationIn,Events,Conditions,WindDirDegrees,DateUTC
12:15 AM,57.2,57.2,100,29.74,10.0,East,10.4,-,N/A,Rain,Light Rain,90,2011-10-19 04:15:00
12:35 AM,57.2,57.2,100,29.72,10.0,East,8.1,-,N/A,,Light Drizzle,90,2011-10-19 04:35:00
12:55 AM,57.2,55.4,94,29.70,10.0,NE,3.5,-,N/A,Rain,Light Rain,50,2011-10-19 04:55:00
1:15 AM,57.2,55.4,94,29.69,10.0,ENE,5.8,-,N/A,,Scattered Clouds,60,2011-10-19 05:15:00
1:35 AM,57.2,55.4,94,29.68,10.0,NNE,4.6,-,N/A,,Mostly Cloudy,30,2011-10-19 05:35:00
1:55 AM,57.2,55.4,94,29.68,10.0,East,3.5,-,N/A,,Mostly Cloudy,80,2011-10-19 05:55:00
2:15 AM,57.2,57.2,100,29.68,10.0,ESE,3.5,-,N/A,,Overcast,120,2011-10-19 06:15:00
2:35 AM,55.4,55.4,100,29.67,10.0,Calm,Calm,-,N/A,,Overcast,0,2011-10-19 06:35:00
2:55 AM,55.4,55.4,100,29.67,10.0,Calm,Calm,-,N/A,,Overcast,0,2011-10-19 06:55:00
3:15 AM,55.4,55.4,100,29.67,10.0,Calm,Calm,-,N/A,,Overcast,0,2011-10-19 07:15:00
3:35 AM,55.4,55.4,100,29.65,10.0,Calm,Calm,-,N/A,,Overcast,0,2011-10-19 07:35:00
3:55 AM,55.4,55.4,100,29.65,10.0,Calm,Calm,-,N/A,,Overcast,0,2011-10-19 07:55:00
4:15 AM,55.4,55.4,100,29.65,10.0,Calm,Calm,-,N/A,,Overcast,0,2011-10-19 08:15:00
4:35 AM,55.4,55.4,100,29.63,10.0,Calm,Calm,-,N/A,,Overcast,0,2011-10-19 08:35:00
4:55 AM,57.2,57.2,100,29.62,10.0,ENE,4.6,-,N/A,,Overcast,70,2011-10-19 08:55:00
5:15 AM,57.2,57.2,100,29.61,10.0,East,6.9,-,N/A,,Overcast,80,2011-10-19 09:15:00
6:15 AM,57.2,57.2,100,29.60,10.0,East,15.0,-,N/A,,Overcast,80,2011-10-19 10:15:00
6:35 AM,57.2,57.2,100,29.59,4.0,East,15.0,23.0,N/A,,Overcast,90,2011-10-19 10:35:00
6:55 AM,57.2,57.2,100,29.58,1.2,East,13.8,20.7,N/A,,Overcast,80,2011-10-19 10:55:00
7:15 AM,57.2,57.2,100,29.58,10.0,East,16.1,20.7,N/A,,Overcast,80,2011-10-19 11:15:00
7:35 AM,57.2,57.2,100,29.57,10.0,East,15.0,21.9,N/A,,Overcast,80,2011-10-19 11:35:00
7:55 AM,57.2,57.2,100,29.57,10.0,East,13.8,18.4,N/A,,Overcast,90,2011-10-19 11:55:00
8:15 AM,57.2,57.2,100,29.56,10.0,East,15.0,19.6,N/A,,Overcast,80,2011-10-19 12:15:00
8:35 AM,57.2,57.2,100,29.56,10.0,East,11.5,23.0,N/A,,Overcast,80,2011-10-19 12:35:00
9:15 AM,57.2,57.2,100,29.55,10.0,East,17.3,23.0,N/A,,Overcast,90,2011-10-19 13:15:00
9:35 AM,57.2,57.2,100,29.54,10.0,East,19.6,25.3,N/A,,Overcast,80,2011-10-19 13:35:00
9:55 AM,57.2,57.2,100,29.54,10.0,East,13.8,24.2,N/A,,Overcast,90,2011-10-19 13:55:00
10:15 AM,57.2,57.2,100,29.54,10.0,East,18.4,27.6,N/A,,Overcast,80,2011-10-19 14:15:00
10:35 AM,57.2,57.2,100,29.54,10.0,East,15.0,24.2,N/A,,Overcast,90,2011-10-19 14:35:00
10:55 AM,57.2,57.2,100,29.52,5.0,East,16.1,25.3,N/A,Rain,Rain,80,2011-10-19 14:55:00
11:15 AM,57.2,57.2,100,29.51,10.0,East,20.7,27.6,N/A,,Overcast,80,2011-10-19 15:15:00
11:35 AM,57.2,57.2,100,29.49,7.0,ENE,17.3,24.2,N/A,Rain,Rain,70,2011-10-19 15:35:00
11:55 AM,57.2,57.2,100,29.48,7.0,East,16.1,24.2,0.01,Rain,Light Rain,80,2011-10-19 15:55:00
12:15 PM,57.2,57.2,100,29.47,7.0,East,16.1,23.0,N/A,Rain,Light Rain,80,2011-10-19 16:15:00
12:55 PM,57.2,57.2,100,29.45,10.0,East,20.7,27.6,N/A,,Overcast,80,2011-10-19 16:55:00
1:15 PM,59.0,59.0,100,29.43,10.0,East,13.8,26.5,N/A,,Overcast,80,2011-10-19 17:15:00
1:35 PM,59.0,59.0,100,29.41,10.0,East,15.0,-,N/A,,Overcast,90,2011-10-19 17:35:00
1:55 PM,60.8,59.0,94,29.40,10.0,East,15.0,23.0,N/A,,Overcast,90,2011-10-19 17:55:00
2:15 PM,60.8,59.0,94,29.39,10.0,East,17.3,26.5,N/A,,Overcast,90,2011-10-19 18:15:00
2:35 PM,60.8,59.0,94,29.38,10.0,East,15.0,20.7,N/A,,Overcast,90,2011-10-19 18:35:00
2:55 PM,60.8,59.0,94,29.37,10.0,East,12.7,19.6,N/A,,Overcast,80,2011-10-19 18:55:00
3:15 PM,60.8,59.0,94,29.36,10.0,East,11.5,19.6,N/A,,Overcast,90,2011-10-19 19:15:00
3:35 PM,60.8,59.0,94,29.35,10.0,East,10.4,19.6,N/A,,Overcast,80,2011-10-19 19:35:00
3:55 PM,60.8,59.0,94,29.35,10.0,East,12.7,-,N/A,,Overcast,80,2011-10-19 19:55:00
4:15 PM,59.0,59.0,100,29.35,10.0,East,11.5,-,N/A,,Overcast,90,2011-10-19 20:15:00
4:55 PM,59.0,59.0,100,29.35,10.0,East,5.8,-,N/A,,Overcast,90,2011-10-19 20:55:00
5:15 PM,59.0,59.0,100,29.34,10.0,East,6.9,-,N/A,,Overcast,100,2011-10-19 21:15:00
5:35 PM,59.0,59.0,100,29.33,10.0,East,6.9,-,N/A,,Overcast,100,2011-10-19 21:35:00
5:55 PM,59.0,59.0,100,29.34,10.0,ESE,4.6,-,N/A,,Overcast,110,2011-10-19 21:55:00
6:15 PM,59.0,59.0,100,29.35,10.0,East,4.6,-,N/A,,Overcast,100,2011-10-19 22:15:00
6:35 PM,59.0,59.0,100,29.34,10.0,ESE,6.9,-,N/A,Thunderstorm,Overcast,110,2011-10-19 22:35:00
6:55 PM,55.4,55.4,100,29.37,4.0,WSW,11.5,20.7,0.07,Rain,Heavy Rain,250,2011-10-19 22:55:00
7:15 PM,53.6,53.6,100,29.39,10.0,West,10.4,18.4,0.06,Rain,Light Rain,260,2011-10-19 23:15:00
7:35 PM,53.6,53.6,100,29.41,4.0,West,9.2,-,0.18,Rain,Heavy Rain,260,2011-10-19 23:35:00
7:55 PM,51.8,51.8,100,29.41,10.0,West,6.9,-,0.18,Rain,Light Rain,260,2011-10-19 23:55:00
8:15 PM,51.8,51.8,100,29.41,10.0,West,6.9,-,N/A,,Overcast,260,2011-10-20 00:15:00
8:35 PM,51.8,51.8,100,29.42,10.0,WSW,5.8,-,N/A,Rain,Light Rain,250,2011-10-20 00:35:00
8:55 PM,50.0,50.0,100,29.42,10.0,WSW,6.9,-,N/A,,Overcast,240,2011-10-20 00:55:00
9:35 PM,48.2,48.2,100,29.44,10.0,WSW,9.2,18.4,N/A,,Overcast,250,2011-10-20 01:35:00
9:55 PM,48.2,46.4,93,29.44,10.0,West,13.8,21.9,N/A,,Overcast,260,2011-10-20 01:55:00
10:15 PM,48.2,46.4,93,29.44,10.0,WSW,9.2,17.3,N/A,,Overcast,250,2011-10-20 02:15:00
10:35 PM,46.4,46.4,100,29.45,10.0,WSW,9.2,17.3,N/A,,Overcast,250,2011-10-20 02:35:00
10:55 PM,46.4,46.4,100,29.45,10.0,WSW,10.4,18.4,N/A,,Overcast,240,2011-10-20 02:55:00
11:15 PM,46.4,44.6,93,29.46,10.0,WSW,6.9,17.3,N/A,,Overcast,250,2011-10-20 03:15:00
11:35 PM,46.4,44.6,93,29.46,10.0,WSW,8.1,16.1,N/A,,Overcast,240,2011-10-20 03:35:00
11:55 PM,46.4,44.6,93,29.46,10.0,West,8.1,16.1,N/A,,Overcast,270,2011-10-20 03:55:00